LAN576 SCEL-SKBO

Flight info

Callsign LAN576
Flight time N/A
Altitude 34000
Route DILOK7B DILOK UQ814 PABOS UL650 BUVSA DCT BRADA/N0456F360 UL300 UMBAT/N0448F380 UL300 IQT/N0448F370 UL300 ROLUS/N0448F380 UN420 ORBAB/N0442F370 DCT EGEPI EGEPI5W
Aircraft A320/M-SDE3FGHIRWY/LB1

Departure

Time N/A
Airport Comodoro Arturo Merino Benítez International Airport (SCEL)

Arrival

Time 2026-04-30 22:25
Airport El Dorado International Airport (SKBO)
Time Latitude Longitude Altitude Speed Heading
2026-04-30 17:39 -26.39212 -70.18190 33936 ft 416 kts 348°
2026-04-30 17:42 -26.10518 -70.21911 33956 ft 416 kts 348°
2026-04-30 17:43 -25.96125 -70.23769 33948 ft 417 kts 348°
2026-04-30 17:44 -25.78853 -70.25994 33960 ft 417 kts 348°
2026-04-30 17:47 -25.52974 -70.29309 33963 ft 417 kts 348°
2026-04-30 17:48 -25.32836 -70.31883 33952 ft 416 kts 347°
2026-04-30 17:50 -25.09841 -70.34809 33963 ft 416 kts 347°
2026-04-30 17:52 -24.92636 -70.36986 33967 ft 415 kts 347°
2026-04-30 17:54 -24.66769 -70.40259 33973 ft 416 kts 347°
2026-04-30 17:56 -24.43780 -70.43143 33964 ft 415 kts 347°
2026-04-30 17:58 -24.26575 -70.45310 33944 ft 415 kts 347°
2026-04-30 18:00 -24.03695 -70.48166 33969 ft 414 kts 347°
2026-04-30 18:01 -23.89379 -70.49949 33972 ft 414 kts 347°
2026-04-30 18:02 -23.72202 -70.52097 33954 ft 414 kts 347°
2026-04-30 18:04 -23.55005 -70.54221 33984 ft 415 kts 347°
2026-04-30 18:06 -23.32943 -70.56960 33968 ft 417 kts 347°
2026-04-30 18:08 -23.12818 -70.59445 33955 ft 416 kts 347°
2026-04-30 18:10 -22.89749 -70.62270 33976 ft 417 kts 347°
2026-04-30 18:11 -22.69634 -70.64739 33963 ft 416 kts 347°
2026-04-30 18:13 -22.55243 -70.66503 33963 ft 416 kts 347°
2026-04-30 18:14 -22.40855 -70.68257 33959 ft 416 kts 347°
2026-04-30 18:15 -22.23596 -70.70351 33939 ft 416 kts 347°
2026-04-30 18:16 -22.12089 -70.71754 33959 ft 416 kts 347°
2026-04-30 18:17 -22.06340 -70.72463 33960 ft 416 kts 347°
2026-04-30 18:18 -21.97748 -70.73487 33967 ft 416 kts 347°
2026-04-30 18:18 -21.91999 -70.74180 33951 ft 415 kts 348°
2026-04-30 18:19 -21.86204 -70.74548 33954 ft 420 kts 353°
2026-04-30 18:19 -21.80356 -70.74575 33957 ft 420 kts 353°
2026-04-30 18:20 -21.74519 -70.74597 33959 ft 420 kts 353°
2026-04-30 18:20 -21.68680 -70.74621 33969 ft 419 kts 353°
2026-04-30 18:21 -21.62840 -70.74644 33952 ft 420 kts 353°
2026-04-30 18:21 -21.56999 -70.74675 33955 ft 420 kts 353°
2026-04-30 18:22 -21.51164 -70.74706 33957 ft 419 kts 353°
2026-04-30 18:22 -21.42408 -70.74752 33960 ft 419 kts 353°
2026-04-30 18:23 -21.36572 -70.74785 33964 ft 419 kts 353°
2026-04-30 18:23 -21.30736 -70.74809 33945 ft 419 kts 353°
2026-04-30 18:24 -21.21997 -70.74844 33959 ft 418 kts 353°
2026-04-30 18:25 -21.16219 -70.74880 33961 ft 418 kts 353°
2026-04-30 18:25 -21.07500 -70.74924 33965 ft 418 kts 353°
2026-04-30 18:26 -20.98785 -70.74955 33969 ft 417 kts 353°
2026-04-30 18:27 -20.90071 -70.75013 33964 ft 417 kts 353°
2026-04-30 18:28 -20.81358 -70.75050 33963 ft 417 kts 353°
2026-04-30 18:28 -20.72641 -70.75092 33961 ft 417 kts 353°
2026-04-30 18:29 -20.61075 -70.75149 33949 ft 416 kts 353°
2026-04-30 18:30 -20.49485 -70.75206 33956 ft 416 kts 353°
2026-04-30 18:31 -20.40796 -70.75242 33960 ft 416 kts 353°
2026-04-30 18:32 -20.32071 -70.74422 33943 ft 423 kts
2026-04-30 18:33 -20.23338 -70.72999 33950 ft 423 kts
2026-04-30 18:33 -20.14643 -70.71579 33952 ft 423 kts
2026-04-30 18:34 -20.05924 -70.70171 33948 ft 422 kts
2026-04-30 18:35 -20.00112 -70.69231 33935 ft 422 kts
2026-04-30 18:35 -19.94306 -70.68290 33942 ft 422 kts
2026-04-30 18:36 -19.85598 -70.66870 33944 ft 422 kts
2026-04-30 18:37 -19.76902 -70.65468 33944 ft 421 kts
2026-04-30 18:37 -19.71100 -70.64529 33932 ft 421 kts
2026-04-30 18:38 -19.65309 -70.63592 33937 ft 421 kts
2026-04-30 18:38 -19.59516 -70.62660 33941 ft 421 kts
2026-04-30 18:39 -19.53728 -70.61722 33947 ft 421 kts
2026-04-30 18:39 -19.47945 -70.60786 33940 ft 420 kts
2026-04-30 18:40 -19.42167 -70.59811 33946 ft 422 kts
2026-04-30 18:40 -19.36414 -70.58490 33931 ft 424 kts
2026-04-30 18:41 -19.30673 -70.57011 33935 ft 424 kts
2026-04-30 18:41 -19.24968 -70.55590 33938 ft 424 kts
2026-04-30 18:42 -19.19184 -70.54205 33934 ft 423 kts
2026-04-30 18:42 -19.10603 -70.52170 33930 ft 423 kts
2026-04-30 18:45 -18.79104 -70.44641 33944 ft 421 kts
2026-04-30 18:46 -18.73392 -70.43283 33926 ft 420 kts
2026-04-30 18:46 -18.67694 -70.41930 33936 ft 420 kts
2026-04-30 18:47 -18.61995 -70.40577 33936 ft 419 kts
2026-04-30 18:47 -18.56304 -70.39231 33939 ft 419 kts
2026-04-30 18:48 -18.50650 -70.37885 33944 ft 419 kts
2026-04-30 18:48 -18.44964 -70.36531 33942 ft 419 kts
2026-04-30 18:49 -18.39270 -70.35226 33920 ft 416 kts
2026-04-30 18:49 -18.33608 -70.35360 33932 ft 403 kts 345°
2026-04-30 18:50 -18.28119 -70.36549 33933 ft 402 kts 345°
2026-04-30 18:50 -18.22634 -70.37733 33932 ft 402 kts 345°
2026-04-30 18:51 -18.17194 -70.38905 33933 ft 402 kts 345°
2026-04-30 18:51 -18.11713 -70.40081 33932 ft 402 kts 345°
2026-04-30 18:52 -18.06235 -70.41262 33914 ft 402 kts 345°
2026-04-30 18:52 -18.00754 -70.42447 33917 ft 402 kts 345°
2026-04-30 18:53 -17.95271 -70.43632 33928 ft 402 kts 345°
2026-04-30 18:53 -17.89775 -70.44817 33930 ft 403 kts 345°
2026-04-30 18:54 -17.84322 -70.45987 33932 ft 403 kts 345°
2026-04-30 18:54 -17.78832 -70.47165 33937 ft 403 kts 345°
2026-04-30 18:55 -17.73345 -70.48346 33927 ft 403 kts 345°
2026-04-30 18:55 -17.65105 -70.50118 33941 ft 403 kts 345°
2026-04-30 18:56 -17.57783 -70.51690 33943 ft 403 kts 345°
2026-04-30 18:57 -17.48611 -70.53661 33949 ft 403 kts 345°
2026-04-30 18:57 -17.44044 -70.54643 33970 ft 403 kts 345°
2026-04-30 18:58 -17.35815 -70.56396 33969 ft 402 kts 345°
2026-04-30 18:59 -17.27592 -70.58155 34003 ft 402 kts 345°
2026-04-30 19:00 -17.16636 -70.60504 34040 ft 402 kts 345°
2026-04-30 19:01 -17.05661 -70.62841 34017 ft 403 kts 346°
2026-04-30 19:02 -16.97412 -70.64598 34021 ft 404 kts 346°
2026-04-30 19:03 -16.86413 -70.66958 34045 ft 405 kts 346°
2026-04-30 19:04 -16.75356 -70.69297 34044 ft 406 kts 346°
2026-04-30 19:05 -16.64268 -70.71665 34040 ft 407 kts 346°
2026-04-30 19:06 -16.53153 -70.74022 34045 ft 408 kts 346°
2026-04-30 19:06 -16.44809 -70.75780 34019 ft 408 kts 346°
2026-04-30 19:07 -16.36429 -70.77564 34023 ft 411 kts 346°
2026-04-30 19:08 -16.25235 -70.79940 34034 ft 412 kts 346°
2026-04-30 19:09 -16.16801 -70.81719 34036 ft 412 kts 346°
2026-04-30 19:09 -16.11185 -70.82913 34034 ft 411 kts 346°
2026-04-30 19:10 -16.00004 -70.85283 34036 ft 409 kts 346°
2026-04-30 19:11 -15.91635 -70.87047 34034 ft 409 kts 346°
2026-04-30 19:12 -15.86061 -70.88223 34049 ft 408 kts 346°
2026-04-30 19:12 -15.80538 -70.89396 34037 ft 408 kts 346°
2026-04-30 19:13 -15.69417 -70.91740 34028 ft 407 kts 346°
2026-04-30 19:14 -15.63862 -70.92913 34024 ft 407 kts 346°
2026-04-30 19:14 -15.58314 -70.94087 34032 ft 407 kts 346°
2026-04-30 19:15 -15.52759 -70.95252 34032 ft 407 kts 346°
2026-04-30 19:15 -15.44450 -70.96998 34025 ft 408 kts 346°
2026-04-30 19:16 -15.38876 -70.98166 34026 ft 409 kts 346°
2026-04-30 19:17 -15.30510 -70.99922 34015 ft 409 kts 346°
2026-04-30 19:17 -15.22137 -71.01689 33997 ft 409 kts 346°
2026-04-30 19:18 -15.13762 -71.03441 33991 ft 409 kts 346°
2026-04-30 19:19 -15.08181 -71.04605 33975 ft 409 kts 346°
2026-04-30 19:19 -14.99849 -71.06355 33979 ft 409 kts 346°
2026-04-30 19:20 -14.94271 -71.07517 33965 ft 409 kts 346°
2026-04-30 19:21 -14.85902 -71.09271 33961 ft 409 kts 346°
2026-04-30 19:22 -14.74739 -71.11616 33951 ft 409 kts 347°
2026-04-30 19:23 -14.57950 -71.15108 33977 ft 410 kts 347°
2026-04-30 19:24 -14.49552 -71.16860 33983 ft 410 kts 347°
2026-04-30 19:25 -14.35555 -71.19769 33996 ft 411 kts 347°
2026-04-30 19:26 -14.24396 -71.22095 33993 ft 410 kts 347°
2026-04-30 19:27 -14.16006 -71.23826 33992 ft 410 kts 347°
2026-04-30 19:28 -14.07577 -71.25570 33990 ft 413 kts 347°
2026-04-30 19:29 -13.96281 -71.27924 34031 ft 415 kts 347°
2026-04-30 19:30 -13.84951 -71.30262 34042 ft 415 kts 347°
2026-04-30 19:31 -13.73568 -71.32618 34035 ft 420 kts 347°
2026-04-30 19:31 -13.64954 -71.34401 34042 ft 422 kts 347°
2026-04-30 19:32 -13.59200 -71.35594 34071 ft 422 kts 347°
2026-04-30 19:32 -13.53430 -71.36786 34065 ft 423 kts 347°
2026-04-30 19:33 -13.47655 -71.37977 34064 ft 423 kts 348°
2026-04-30 19:33 -13.41879 -71.39169 34075 ft 424 kts 348°
2026-04-30 19:34 -13.36134 -71.40360 34066 ft 424 kts 348°
2026-04-30 19:35 -13.27456 -71.42160 34065 ft 424 kts 348°
2026-04-30 19:35 -13.21664 -71.43353 34044 ft 425 kts 348°
2026-04-30 19:36 -13.15870 -71.44547 34040 ft 425 kts 347°
2026-04-30 19:36 -13.07196 -71.46337 34013 ft 423 kts 347°
2026-04-30 19:37 -13.01422 -71.47528 34016 ft 423 kts 347°
2026-04-30 19:37 -12.95652 -71.48720 33975 ft 423 kts 347°
2026-04-30 19:38 -12.89888 -71.49908 33973 ft 422 kts 347°
2026-04-30 19:38 -12.84123 -71.51100 33973 ft 422 kts 347°
2026-04-30 19:39 -12.78367 -71.52288 33950 ft 421 kts 347°
2026-04-30 19:39 -12.72624 -71.53474 33958 ft 420 kts 347°
2026-04-30 19:40 -12.66898 -71.54645 33943 ft 419 kts 347°
2026-04-30 19:40 -12.61176 -71.55814 33941 ft 419 kts 347°
2026-04-30 19:41 -12.55444 -71.56991 33939 ft 421 kts 348°
2026-04-30 19:41 -12.49678 -71.58175 33920 ft 424 kts 348°
2026-04-30 19:42 -12.43891 -71.59362 33917 ft 424 kts 347°
2026-04-30 19:42 -12.38106 -71.60552 33917 ft 424 kts 347°
2026-04-30 19:43 -12.32332 -71.61737 33924 ft 423 kts 347°
2026-04-30 19:44 -12.23717 -71.63513 33910 ft 423 kts 347°
2026-04-30 19:44 -12.17953 -71.64696 33908 ft 422 kts 347°
2026-04-30 19:45 -12.12193 -71.65868 33883 ft 422 kts 347°
2026-04-30 19:45 -12.06437 -71.67041 33885 ft 421 kts 347°
2026-04-30 19:46 -12.00687 -71.68225 33884 ft 421 kts 347°
2026-04-30 19:46 -11.95909 -71.69208 33873 ft 421 kts 347°
2026-04-30 19:47 -11.89186 -71.70583 33881 ft 421 kts 347°
2026-04-30 19:47 -11.84408 -71.71558 33869 ft 422 kts 347°
2026-04-30 19:48 -11.78659 -71.72738 33861 ft 422 kts 347°
2026-04-30 19:48 -11.72901 -71.73918 33853 ft 422 kts 347°
2026-04-30 19:49 -11.67127 -71.75102 33849 ft 423 kts 347°
2026-04-30 19:49 -11.58459 -71.76869 33853 ft 424 kts 347°
2026-04-30 19:50 -11.52675 -71.78050 33860 ft 424 kts 347°
2026-04-30 19:50 -11.46882 -71.79241 33862 ft 425 kts 347°
2026-04-30 19:51 -11.41083 -71.80430 33855 ft 426 kts 347°
2026-04-30 19:51 -11.35307 -71.81609 33854 ft 427 kts 347°
2026-04-30 19:52 -11.29481 -71.82798 33853 ft 427 kts 347°
2026-04-30 19:52 -11.23644 -71.83988 33857 ft 428 kts 347°
2026-04-30 19:53 -11.17809 -71.85176 33859 ft 428 kts 347°
2026-04-30 19:53 -11.11968 -71.86362 33860 ft 428 kts 347°
2026-04-30 19:54 -11.06130 -71.87554 33858 ft 428 kts 347°
2026-04-30 19:54 -11.00294 -71.88747 33855 ft 428 kts 347°
2026-04-30 19:55 -10.94456 -71.89942 33858 ft 428 kts 347°
2026-04-30 19:55 -10.88616 -71.91132 33862 ft 428 kts 348°
2026-04-30 19:56 -10.82778 -71.92317 33866 ft 427 kts 347°
2026-04-30 19:56 -10.76955 -71.93500 33869 ft 427 kts 348°
2026-04-30 19:57 -10.71118 -71.94684 33849 ft 428 kts 348°
2026-04-30 19:57 -10.65263 -71.95875 33846 ft 429 kts 348°
2026-04-30 19:58 -10.59436 -71.97057 33849 ft 430 kts 348°
2026-04-30 19:58 -10.53561 -71.98246 33854 ft 430 kts 348°
2026-04-30 19:59 -10.47689 -71.99445 33855 ft 431 kts 348°
2026-04-30 20:00 -10.38878 -72.01240 33847 ft 430 kts 348°
2026-04-30 20:00 -10.33007 -72.02426 33862 ft 430 kts 348°
2026-04-30 20:01 -10.24213 -72.04199 33863 ft 429 kts 348°
2026-04-30 20:01 -10.18353 -72.05379 33865 ft 429 kts 348°
2026-04-30 20:02 -10.09569 -72.07170 33860 ft 429 kts 348°
2026-04-30 20:03 -10.00786 -72.08948 33852 ft 429 kts 348°
2026-04-30 20:03 -9.94921 -72.10121 33850 ft 430 kts 348°
2026-04-30 20:04 -9.89053 -72.11284 33847 ft 430 kts 348°
2026-04-30 20:05 -9.80248 -72.13021 33855 ft 430 kts 348°
2026-04-30 20:05 -9.71442 -72.14762 33848 ft 430 kts 348°
2026-04-30 20:06 -9.65614 -72.15916 33852 ft 429 kts 348°
2026-04-30 20:06 -9.59749 -72.17079 33857 ft 429 kts 348°
2026-04-30 20:07 -9.53892 -72.18242 33855 ft 429 kts 348°
2026-04-30 20:08 -9.45102 -72.19939 33859 ft 429 kts 349°
2026-04-30 20:08 -9.39238 -72.21035 33854 ft 428 kts 349°
2026-04-30 20:09 -9.33374 -72.22135 33849 ft 428 kts 349°
2026-04-30 20:09 -9.24582 -72.23795 33852 ft 428 kts 349°
2026-04-30 20:10 -9.15807 -72.25463 33843 ft 428 kts 349°
2026-04-30 20:11 -9.07031 -72.27132 33841 ft 427 kts 349°
2026-04-30 20:11 -9.01221 -72.28230 33845 ft 427 kts 349°
2026-04-30 20:12 -8.92473 -72.29905 33847 ft 426 kts 348°
2026-04-30 20:13 -8.86666 -72.31116 33849 ft 426 kts 348°
2026-04-30 20:13 -8.80866 -72.32329 33841 ft 425 kts 348°
2026-04-30 20:14 -8.75068 -72.33508 33838 ft 425 kts 348°
2026-04-30 20:14 -8.69269 -72.34688 33838 ft 425 kts 348°
2026-04-30 20:15 -8.63472 -72.35869 33836 ft 425 kts 348°
2026-04-30 20:15 -8.57681 -72.37061 33836 ft 424 kts 348°
2026-04-30 20:16 -8.51900 -72.38244 33831 ft 424 kts 348°
2026-04-30 20:16 -8.46115 -72.39423 33834 ft 424 kts 348°
2026-04-30 20:17 -8.40337 -72.40610 33831 ft 424 kts 348°
2026-04-30 20:17 -8.34559 -72.41801 33832 ft 424 kts 348°
2026-04-30 20:18 -8.28817 -72.42971 33828 ft 423 kts 349°
2026-04-30 20:18 -8.23041 -72.44148 33829 ft 423 kts 349°
2026-04-30 20:19 -8.17272 -72.45331 33828 ft 423 kts 349°
2026-04-30 20:19 -8.11498 -72.46514 33829 ft 423 kts 349°
2026-04-30 20:20 -8.05724 -72.47694 33821 ft 423 kts 349°
2026-04-30 20:20 -7.99953 -72.48873 33823 ft 423 kts 349°
2026-04-30 20:21 -7.94179 -72.50052 33827 ft 423 kts 349°
2026-04-30 20:21 -7.88438 -72.51221 33824 ft 424 kts 349°
2026-04-30 20:22 -7.82658 -72.52395 33819 ft 424 kts 349°
2026-04-30 20:22 -7.76871 -72.53572 33822 ft 424 kts 349°
2026-04-30 20:23 -7.71078 -72.54755 33826 ft 425 kts 349°
2026-04-30 20:23 -7.65286 -72.55927 33825 ft 425 kts 349°
2026-04-30 20:24 -7.59486 -72.57073 33820 ft 425 kts 349°
2026-04-30 20:24 -7.53687 -72.58219 33822 ft 425 kts 349°
2026-04-30 20:25 -7.44978 -72.59952 33830 ft 425 kts 349°
2026-04-30 20:26 -7.36317 -72.61673 33838 ft 424 kts 349°
2026-04-30 20:26 -7.27628 -72.63397 33838 ft 424 kts 349°
2026-04-30 20:27 -7.16039 -72.65690 33839 ft 424 kts 349°
2026-04-30 20:28 -7.04458 -72.67988 33837 ft 424 kts 349°
2026-04-30 20:30 -6.89970 -72.70859 33834 ft 425 kts 349°
2026-04-30 20:31 -6.72589 -72.74306 33844 ft 424 kts 349°
2026-04-30 20:32 -6.58115 -72.77169 33838 ft 424 kts 349°
2026-04-30 20:33 -6.49419 -72.78891 33834 ft 424 kts 349°
2026-04-30 20:34 -6.40719 -72.80615 33832 ft 425 kts 349°
2026-04-30 20:35 -6.32045 -72.82325 33836 ft 425 kts 349°
2026-04-30 20:35 -6.23340 -72.84056 33840 ft 425 kts 349°
2026-04-30 20:36 -6.17539 -72.85217 33838 ft 425 kts 350°
2026-04-30 20:37 -6.09805 -72.86740 33821 ft 426 kts 350°
2026-04-30 20:37 -6.03985 -72.87885 33823 ft 426 kts 350°
2026-04-30 20:38 -5.98168 -72.89037 33825 ft 426 kts 350°
2026-04-30 20:38 -5.92344 -72.90188 33824 ft 427 kts 350°
2026-04-30 20:39 -5.83605 -72.91916 33824 ft 427 kts 350°
2026-04-30 20:40 -5.74839 -72.93640 33812 ft 429 kts 350°
2026-04-30 20:40 -5.68983 -72.94793 33815 ft 429 kts 350°
2026-04-30 20:41 -5.60187 -72.96533 33845 ft 429 kts 350°
2026-04-30 20:41 -5.54339 -72.97674 33849 ft 428 kts 350°
2026-04-30 20:42 -5.48495 -72.98807 33845 ft 427 kts 350°
2026-04-30 20:43 -5.39738 -73.00512 33812 ft 428 kts 350°
2026-04-30 20:43 -5.33880 -73.01657 33814 ft 429 kts 350°
2026-04-30 20:44 -5.25109 -73.03381 33813 ft 431 kts 350°
2026-04-30 20:45 -5.13333 -73.05677 33817 ft 431 kts 350°
2026-04-30 20:45 -5.07445 -73.06823 33815 ft 431 kts 350°
2026-04-30 20:46 -4.95643 -73.09108 33805 ft 432 kts 350°
2026-04-30 20:47 -4.86775 -73.10831 33806 ft 433 kts 350°
2026-04-30 20:48 -4.77938 -73.12562 33809 ft 433 kts 350°
2026-04-30 20:48 -4.72015 -73.13720 33816 ft 433 kts 349°
2026-04-30 20:49 -4.66094 -73.14869 33811 ft 433 kts 349°
2026-04-30 20:50 -4.57217 -73.16596 33813 ft 433 kts 349°
2026-04-30 20:50 -4.51298 -73.17746 33815 ft 433 kts 349°
2026-04-30 20:51 -4.45379 -73.18896 33813 ft 433 kts 349°
2026-04-30 20:51 -4.36505 -73.20631 33816 ft 433 kts 349°
2026-04-30 20:52 -4.30599 -73.21781 33826 ft 432 kts 349°
2026-04-30 20:53 -4.21758 -73.23501 33827 ft 431 kts 349°
2026-04-30 20:53 -4.15873 -73.24645 33827 ft 430 kts 349°
2026-04-30 20:54 -4.07057 -73.26362 33812 ft 430 kts 349°
2026-04-30 20:55 -3.98243 -73.28080 33807 ft 430 kts 349°
2026-04-30 20:55 -3.92410 -73.29219 33796 ft 430 kts 349°
2026-04-30 20:56 -3.83597 -73.30927 33782 ft 431 kts 349°
2026-04-30 20:57 -3.74727 -73.32464 33779 ft 431 kts 353°
2026-04-30 20:57 -3.68756 -73.33091 33784 ft 432 kts 355°
2026-04-30 20:58 -3.59777 -73.34007 33789 ft 432 kts 354°
2026-04-30 20:58 -3.53800 -73.34702 33787 ft 433 kts 353°
2026-04-30 20:59 -3.44822 -73.35770 33799 ft 433 kts 353°
2026-04-30 21:00 -3.32846 -73.37162 33811 ft 433 kts 354°
2026-04-30 21:01 -3.23904 -73.38196 33811 ft 433 kts 354°
2026-04-30 21:02 -3.14932 -73.39247 33809 ft 433 kts 354°
2026-04-30 21:02 -3.08951 -73.39947 33806 ft 433 kts 354°
2026-04-30 21:03 -3.02968 -73.40641 33814 ft 432 kts 354°
2026-04-30 21:03 -2.96992 -73.41335 33804 ft 432 kts 354°
2026-04-30 21:04 -2.91017 -73.42020 33803 ft 432 kts 354°
2026-04-30 21:04 -2.82087 -73.43058 33797 ft 433 kts 354°
2026-04-30 21:05 -2.76100 -73.43759 33801 ft 433 kts 354°
2026-04-30 21:05 -2.70116 -73.44455 33802 ft 433 kts 354°
2026-04-30 21:06 -2.64124 -73.45146 33803 ft 433 kts 354°
2026-04-30 21:06 -2.58130 -73.45836 33810 ft 434 kts 354°
2026-04-30 21:07 -2.52138 -73.46531 33811 ft 433 kts 354°
2026-04-30 21:07 -2.46148 -73.47229 33811 ft 433 kts 354°
2026-04-30 21:08 -2.40158 -73.47940 33811 ft 433 kts 354°
2026-04-30 21:08 -2.34173 -73.48640 33813 ft 433 kts 354°
2026-04-30 21:09 -2.28179 -73.49335 33814 ft 433 kts 354°
2026-04-30 21:09 -2.22187 -73.50029 33819 ft 434 kts 354°
2026-04-30 21:10 -2.16193 -73.50718 33831 ft 432 kts 354°
2026-04-30 21:10 -2.10225 -73.51413 33836 ft 431 kts 354°
2026-04-30 21:11 -2.04259 -73.52109 33828 ft 431 kts 354°
2026-04-30 21:11 -1.98302 -73.52800 33828 ft 431 kts 354°
2026-04-30 21:12 -1.92390 -73.53482 33833 ft 431 kts 354°
2026-04-30 21:12 -1.86434 -73.54178 33836 ft 430 kts 354°
2026-04-30 21:13 -1.80486 -73.54867 33825 ft 431 kts 353°
2026-04-30 21:13 -1.74533 -73.55558 33819 ft 430 kts 353°
2026-04-30 21:14 -1.68581 -73.56242 33824 ft 431 kts 353°
2026-04-30 21:14 -1.62630 -73.56932 33816 ft 431 kts 353°
2026-04-30 21:15 -1.56681 -73.57625 33813 ft 430 kts 353°
2026-04-30 21:15 -1.50727 -73.58311 33813 ft 430 kts 353°
2026-04-30 21:16 -1.44776 -73.59006 33811 ft 431 kts 353°
2026-04-30 21:16 -1.38819 -73.59697 33802 ft 431 kts 353°
2026-04-30 21:17 -1.32850 -73.60384 33799 ft 432 kts 353°
2026-04-30 21:17 -1.26871 -73.61077 33804 ft 432 kts 353°
2026-04-30 21:18 -1.20932 -73.61765 33803 ft 432 kts 353°
2026-04-30 21:18 -1.14971 -73.62566 33801 ft 432 kts 346°
2026-04-30 21:19 -1.09442 -73.64868 33799 ft 433 kts 329°
2026-04-30 21:19 -1.04284 -73.67967 33804 ft 433 kts 330°
2026-04-30 21:20 -0.99101 -73.71051 33814 ft 433 kts 330°
2026-04-30 21:20 -0.93924 -73.74134 33812 ft 433 kts 330°
2026-04-30 21:21 -0.88742 -73.77218 33811 ft 433 kts 330°
2026-04-30 21:22 -0.80980 -73.81858 33814 ft 433 kts 330°
2026-04-30 21:23 -0.70627 -73.88036 33812 ft 433 kts 329°
2026-04-30 21:23 -0.62869 -73.92661 33815 ft 432 kts 329°
2026-04-30 21:24 -0.57705 -73.95742 33814 ft 432 kts 329°
2026-04-30 21:24 -0.52575 -73.98806 33812 ft 432 kts 329°
2026-04-30 21:25 -0.44832 -74.03432 33810 ft 432 kts 329°
2026-04-30 21:26 -0.37087 -74.08048 33812 ft 432 kts 329°
2026-04-30 21:27 -0.29341 -74.12668 33809 ft 432 kts 329°
2026-04-30 21:27 -0.25049 -74.15233 33809 ft 432 kts 329°
2026-04-30 21:28 -0.17298 -74.19855 33809 ft 433 kts 329°
2026-04-30 21:29 -0.09542 -74.24481 33814 ft 433 kts 329°
2026-04-30 21:30 0.03380 -74.32189 33814 ft 433 kts 329°
2026-04-30 21:31 0.16288 -74.39895 33815 ft 432 kts 328°
2026-04-30 21:32 0.24018 -74.44522 33814 ft 431 kts 328°
2026-04-30 21:32 0.29173 -74.47598 33812 ft 431 kts 329°
2026-04-30 21:33 0.36904 -74.52201 33808 ft 431 kts 328°
2026-04-30 21:34 0.42061 -74.55279 33807 ft 432 kts 328°
2026-04-30 21:34 0.49803 -74.59906 33804 ft 432 kts 328°
2026-04-30 21:35 0.54933 -74.62965 33805 ft 432 kts 328°
2026-04-30 21:35 0.60098 -74.66045 33806 ft 433 kts 328°
2026-04-30 21:36 0.65270 -74.69129 33806 ft 433 kts 328°
2026-04-30 21:37 0.75601 -74.75295 33801 ft 433 kts 328°
2026-04-30 21:37 0.81073 -74.77781 33796 ft 436 kts 346°
2026-04-30 21:38 0.84078 -74.78207 33795 ft 438 kts 357°
2026-04-30 21:38 0.87117 -74.78025 33797 ft 440 kts
2026-04-30 21:38 0.93000 -74.76282 33804 ft 442 kts 17°
2026-04-30 21:39 0.98844 -74.74349 33808 ft 442 kts 17°
2026-04-30 21:39 1.04696 -74.72422 33813 ft 443 kts 17°
2026-04-30 21:40 1.10512 -74.70506 33816 ft 443 kts 17°
2026-04-30 21:40 1.16378 -74.68575 33812 ft 444 kts 17°
2026-04-30 21:41 1.22246 -74.66637 33822 ft 444 kts 17°
2026-04-30 21:41 1.28116 -74.64696 33823 ft 445 kts 17°
2026-04-30 21:42 1.33997 -74.62750 33827 ft 445 kts 17°
2026-04-30 21:42 1.39866 -74.60813 33829 ft 444 kts 17°
2026-04-30 21:43 1.45738 -74.58877 33827 ft 444 kts 17°
2026-04-30 21:43 1.51612 -74.56940 33829 ft 445 kts 17°
2026-04-30 21:44 1.57488 -74.55001 33831 ft 445 kts 17°
2026-04-30 21:44 1.63362 -74.53064 33840 ft 445 kts 17°
2026-04-30 21:45 1.69236 -74.51121 33840 ft 445 kts 17°
2026-04-30 21:45 1.75108 -74.49178 33832 ft 445 kts 17°
2026-04-30 21:46 1.80982 -74.47237 33836 ft 445 kts 17°
2026-04-30 21:46 1.86823 -74.45316 33846 ft 445 kts 17°
2026-04-30 21:47 1.92707 -74.43375 33851 ft 445 kts 17°
2026-04-30 21:47 1.98583 -74.41427 33841 ft 445 kts 17°
2026-04-30 21:48 2.04454 -74.39486 33837 ft 444 kts 17°
2026-04-30 21:48 2.10325 -74.37546 33838 ft 444 kts 17°
2026-04-30 21:49 2.16197 -74.35607 33830 ft 444 kts 17°
2026-04-30 21:49 2.22068 -74.33667 33836 ft 444 kts 17°
2026-04-30 21:50 2.27943 -74.31719 33832 ft 444 kts 17°
2026-04-30 21:50 2.33815 -74.29786 33829 ft 444 kts 17°
2026-04-30 21:51 2.39688 -74.27846 33833 ft 444 kts 17°
2026-04-30 21:51 2.45559 -74.25900 33829 ft 444 kts 17°
2026-04-30 21:52 2.51434 -74.23970 33842 ft 445 kts 17°
2026-04-30 21:52 2.57310 -74.22034 33843 ft 444 kts 16°
2026-04-30 21:53 2.63147 -74.20103 33823 ft 445 kts 17°
2026-04-30 21:53 2.69025 -74.18151 33823 ft 445 kts 17°
2026-04-30 21:54 2.74908 -74.16202 33823 ft 445 kts 17°
2026-04-30 21:54 2.80793 -74.14251 33837 ft 445 kts 17°
2026-04-30 21:55 2.86678 -74.12303 33838 ft 445 kts 17°
2026-04-30 21:55 2.92565 -74.10359 33841 ft 445 kts 16°
2026-04-30 21:56 2.98459 -74.08410 33841 ft 447 kts 16°
2026-04-30 21:56 3.04323 -74.06460 33829 ft 448 kts 16°
2026-04-30 21:57 3.10253 -74.04500 33850 ft 449 kts 16°
2026-04-30 21:57 3.16186 -74.02538 33850 ft 449 kts 16°
2026-04-30 21:58 3.22126 -74.00570 33857 ft 450 kts 16°
2026-04-30 21:58 3.28070 -73.98602 33895 ft 450 kts 16°
2026-04-30 21:59 3.34012 -73.96638 33895 ft 449 kts 16°
2026-04-30 22:00 3.42911 -73.93692 33927 ft 449 kts 16°
2026-04-30 22:00 3.51811 -73.90742 33884 ft 449 kts 16°
2026-04-30 22:01 3.57742 -73.88782 33884 ft 449 kts 16°
2026-04-30 22:01 3.63672 -73.86821 33883 ft 449 kts 16°
2026-04-30 22:02 3.69600 -73.84857 33907 ft 448 kts 16°
2026-04-30 22:02 3.75480 -73.82905 33907 ft 448 kts 16°
2026-04-30 22:03 3.81400 -73.80933 33943 ft 448 kts 16°
2026-04-30 22:03 3.87322 -73.78968 33887 ft 448 kts 16°
2026-04-30 22:04 3.93245 -73.77008 33870 ft 448 kts 16°
2026-04-30 22:05 4.02121 -73.74056 33860 ft 448 kts 16°
2026-04-30 22:05 4.08042 -73.72095 33840 ft 448 kts 16°
2026-04-30 22:05 4.10998 -73.71118 33615 ft 445 kts 17°
2026-04-30 22:06 4.13928 -73.70148 33349 ft 441 kts 17°
2026-04-30 22:06 4.19788 -73.68638 32308 ft 431 kts
2026-04-30 22:06 4.22759 -73.68764 31939 ft 425 kts 348°
2026-04-30 22:07 4.25588 -73.69538 31466 ft 419 kts 335°
2026-04-30 22:07 4.28148 -73.70893 30972 ft 415 kts 323°
2026-04-30 22:07 4.30319 -73.72705 30503 ft 410 kts 316°
2026-04-30 22:07 4.32401 -73.74644 30029 ft 408 kts 316°
2026-04-30 22:08 4.34477 -73.76571 29528 ft 404 kts 316°
2026-04-30 22:08 4.36529 -73.78468 29088 ft 399 kts 316°
2026-04-30 22:08 4.38561 -73.80344 28692 ft 395 kts 316°
2026-04-30 22:08 4.40571 -73.82202 28269 ft 391 kts 316°
2026-04-30 22:09 4.42563 -73.84042 27847 ft 387 kts 316°
2026-04-30 22:09 4.44540 -73.85867 27403 ft 384 kts 317°
2026-04-30 22:09 4.46499 -73.87674 26972 ft 382 kts 316°
2026-04-30 22:09 4.48450 -73.89473 26523 ft 380 kts 317°
2026-04-30 22:10 4.50390 -73.91263 26075 ft 379 kts 317°
2026-04-30 22:10 4.52328 -73.93052 25613 ft 378 kts 317°
2026-04-30 22:10 4.54265 -73.94842 25144 ft 379 kts 317°
2026-04-30 22:10 4.56201 -73.96634 24658 ft 379 kts 317°
2026-04-30 22:11 4.59884 -74.00435 23666 ft 382 kts 304°
2026-04-30 22:11 4.61141 -74.02785 23087 ft 383 kts 290°
2026-04-30 22:11 4.61981 -74.05313 22582 ft 382 kts 287°
2026-04-30 22:12 4.62797 -74.07837 22288 ft 381 kts 287°
2026-04-30 22:12 4.63621 -74.10359 21801 ft 380 kts 288°
2026-04-30 22:12 4.64447 -74.12876 21308 ft 380 kts 288°
2026-04-30 22:12 4.65273 -74.15393 20816 ft 378 kts 288°
2026-04-30 22:13 4.66083 -74.17862 20344 ft 369 kts 288°
2026-04-30 22:13 4.66874 -74.20278 19877 ft 361 kts 288°
2026-04-30 22:13 4.67647 -74.22645 19428 ft 353 kts 288°
2026-04-30 22:13 4.68394 -74.24934 18978 ft 347 kts 288°
2026-04-30 22:14 4.69139 -74.27217 18519 ft 342 kts 288°
2026-04-30 22:14 4.69877 -74.29484 17854 ft 341 kts 288°
2026-04-30 22:14 4.70619 -74.31774 17712 ft 350 kts 288°
2026-04-30 22:14 4.71374 -74.34104 17508 ft 352 kts 288°
2026-04-30 22:15 4.72131 -74.36435 17288 ft 351 kts 288°
2026-04-30 22:15 4.72887 -74.38761 17067 ft 350 kts 288°
2026-04-30 22:15 4.73849 -74.40987 16870 ft 347 kts 301°
2026-04-30 22:15 4.75252 -74.42943 16489 ft 344 kts 314°
2026-04-30 22:16 4.76943 -74.44624 16080 ft 341 kts 317°
2026-04-30 22:16 4.78089 -74.45743 15805 ft 340 kts 317°
2026-04-30 22:17 4.83963 -74.49028 14651 ft 325 kts
2026-04-30 22:17 4.86155 -74.48670 14293 ft 318 kts 23°
2026-04-30 22:17 4.89460 -74.45991 13500 ft 305 kts 62°
2026-04-30 22:18 4.90263 -74.44069 13178 ft 292 kts 78°
2026-04-30 22:18 4.90091 -74.40258 12616 ft 270 kts 112°
2026-04-30 22:19 4.88067 -74.37072 12096 ft 264 kts 125°
2026-04-30 22:19 4.87038 -74.35638 12098 ft 245 kts 126°
2026-04-30 22:19 4.85131 -74.32984 11959 ft 223 kts 126°
2026-04-30 22:20 4.84242 -74.31774 11839 ft 209 kts 128°
2026-04-30 22:20 4.82527 -74.29663 11423 ft 184 kts 130°
2026-04-30 22:20 4.81733 -74.28704 11249 ft 174 kts 130°
2026-04-30 22:21 4.80975 -74.27786 11075 ft 168 kts 129°
2026-04-30 22:21 4.80235 -74.26887 10938 ft 165 kts 129°
2026-04-30 22:21 4.79510 -74.26004 10777 ft 164 kts 129°
2026-04-30 22:21 4.78818 -74.25113 10621 ft 159 kts 127°
2026-04-30 22:22 4.78158 -74.24241 10470 ft 156 kts 127°
2026-04-30 22:22 4.77511 -74.23383 10308 ft 154 kts 127°
2026-04-30 22:22 4.76867 -74.22529 10164 ft 154 kts 127°
2026-04-30 22:22 4.76213 -74.21657 9999 ft 158 kts 126°
2026-04-30 22:23 4.75558 -74.20787 9813 ft 156 kts 126°
2026-04-30 22:23 4.74906 -74.19924 9640 ft 155 kts 127°
2026-04-30 22:23 4.74253 -74.19060 9474 ft 155 kts 128°
2026-04-30 22:23 4.73598 -74.18194 9272 ft 155 kts 129°
2026-04-30 22:24 4.72947 -74.17334 9046 ft 155 kts 129°
2026-04-30 22:24 4.72300 -74.16465 8779 ft 155 kts 128°
2026-04-30 22:24 4.71654 -74.15615 8468 ft 152 kts 131°
2026-04-30 22:24 4.71022 -74.14779 8383 ft 150 kts 129°
2026-04-30 22:25 4.70468 -74.14053 8365 ft 99 kts 127°
2026-04-30 22:25 4.70213 -74.13726 8365 ft 36 kts 138°
2026-04-30 22:25 4.70026 -74.13622 8366 ft 23 kts 157°
2026-04-30 22:25 4.69930 -74.13585 8366 ft 9 kts 166°
2026-04-30 22:26 4.69880 -74.13657 8366 ft 0 kts 262°
2026-04-30 22:27 4.69862 -74.13676 8366 ft 6 kts 172°
2026-04-30 22:28 4.69764 -74.13669 8366 ft 8 kts 288°
2026-04-30 22:28 4.69740 -74.13717 8366 ft 7 kts 224°
2026-04-30 22:29 4.69713 -74.13743 8366 ft 0 kts 224°